"Pseudo-MPEC" for ZTB6114

Created 2018 Oct 12 20:18:27 UT using Find_Orb

Click here for an explanation of pseudo-MPECs

 
 Astrometry: 
     ZTB6114  C2018 10 10.22911 00 22 10.91 +28 12 34.7          20.9 GVNEOCPG96
     ZTB6114  C2018 10 10.24062 00 22 10.13 +28 12 22.9          21.2 GVNEOCPG96
     ZTB6114  C2018 10 10.24639 00 22 09.78 +28 12 18.0          21.1 GVNEOCPG96
     ZTB6114  C2018 10 10f-AstrometryPs$4i+NSuoXjYXq34_PwY5ZeR1ifQwqWpuk9ZtmUV06
     ZTB6114  C2018 10 10i%y7p5K/fHh!\.-GwMxtDUjs!*SuQ.dVafGXrABt0wV*Xo1VjVf4V06
     ZTB6114  C2018 10 10Og]IkZY-?Vx`xrpu)hYa^kq(!7*$5gt^3T@/D_ewEdIp9R8smv?XV06
     ZTB6114  C2018 10 10sVu#50k/H$fx'e]lbredacted;\01,JEweuo*ThaOkP969anW(l^V06
     ZTB6114  C2018 10 11m)+/@;@L?8qp$Ge.!SI*yyC59^*JfPcYZnhTcc]URSYy?BLE^KE'V06
     ZTB6114  C2018 10 11a8eE,u%?/MbckKDNZv':O6)M[gxZH9rg^5s4n9Cv!ag_o`5PTdQjV06
     ZTB6114  C2018 10 11m$LZV,\pYITHCh6fl7M3qf(W!3fedV2B\Fxi(HHQ#ptEf013!8FrV06
     ZTB6114  C2018 10 11$)*%ppjZLVV/.R*WT\Z$0YDukWv]XIb;seeSg1#2E)h!lk/DOfx1V06
     ZTB6114 KC2018 10 11VB4!q%XGbjp$+#FZXadVEUuFS`G0\[eS:w!VhK[sO'j/9+Mm*m(_L01
     ZTB6114 KC2018 10 11BNl(OV?dAr$?M5ayJ4(QXkDd?kfI8nbZv.=Le\6`T;Y\*@[TUc_3L01
     ZTB6114 KC2018 10 11T]QsNqvA?8!GrhfT$Lcs,E#L1[CpowSK\r!#7:X-;Qu'_TSNEOCPL01

Station data:
(G96) Mt. Lemmon Survey  (N32.442754 W110.788720)  US/Arizona.  Observers B.
   M. Africano, E. J. Christensen, D. C. Fuls, A. R. Gibbs, A. D. Grauer, J.
   A. Johnson, R. A. Kowalski, S. M. Larson, G. J. Leonard, R. L. Seaman, F.
   C. Shelly. 1.5-m reflector + 10K CCD.
(L01) Višnjan Observatory, Tičan  (N45.290900 E13.749300)  Croatia.  Observer
   K. Korlević. 1.0-m f/2.9 reflector + CCD.
(V06) Catalina Sky Survey-Kuiper  (N32.416847 W110.732550)  US/Arizona.
   Observers B. M. Africano, E. J. Christensen, D. C. Fuls, A. R. Gibbs, A.
   D. Grauer, J. A. Johnson, R. A. Kowalski, S. M. Larson, G. J. Leonard, R.
   L. Seaman, F. C. Shelly. 1.55-m reflector + CCD.

Orbital elements:  ZTB6114
   Perihelion 2019 Aug 1.436938 +/- 35.3 TT = 10:29:11 (JD 2458696.936938)
Epoch 2018 Oct 11.0 TT = JDT 2458402.5   Earth MOID: 0.8222   AutoNEOCP
M 253.07171 +/- 14                  (J2000 ecliptic)
n   0.36316191 +/- 0.0117           Peri.  257.88803 +/- 9
a   1.94567000 +/- 0.0417           Node   236.58138 +/- 1.8
e   0.1156825 +/- 0.0436            Incl.   18.72202 +/- 0.9
P   2.71/991.27d           H 18.8   G  0.15   U  9.8  
q 1.72058985 +/- 0.0512    Q 2.17075016 +/- 0.131
From 14 observations 2018 Oct. 10-11 (36.7 hr); mean residual 0".32
Residuals in arcseconds: 
181010 G96  .44+  .47+    181010 V06  .10-  .00     181011 V06  .94+  .20-    
181010 G96  .27-  .49-    181010 V06  .18-  .04-    181011 L01  .26-  .11+    
181010 G96  .09-  .05+    181011 V06  .60-  .65-    181011 L01  .08-  .08-    
181010 V06  .08-  .07+    181011 V06  .26+  .13+    181011 L01  .14+  .09+    
181010 V06  .02-  .04+    181011 V06  .05-  .42+    

Ephemerides (geocentric):
Date (UTC) HH   RA              Dec         delta   r     elong  mag " sig PA
---- -- -- --  -------------   -----------  ------ ------ -----  --- ---- ---
2018 10 12 20  00 19 37.686   +27 30 16.75  1.0764 2.0314 156.6 21.2  .51 131
2018 10 12 21  00 19 35.290   +27 29 35.00  1.0764 2.0314 156.6 21.2  .55 130
2018 10 12 22  00 19 32.895   +27 28 53.21  1.0764 2.0313 156.6 21.2  .59 130
2018 10 12 23  00 19 30.502   +27 28 11.39  1.0763 2.0313 156.6 21.2  .63 129
2018 10 13 00  00 19 28.111   +27 27 29.53  1.0763 2.0312 156.6 21.2  .68 129
2018 10 13 01  00 19 25.722   +27 26 47.64  1.0763 2.0312 156.6 21.2  .72 129
2018 10 13 02  00 19 23.335   +27 26 05.71  1.0762 2.0311 156.6 21.2  .77 128
2018 10 13 03  00 19 20.950   +27 25 23.75  1.0762 2.0310 156.6 21.2  .81 128
2018 10 13 04  00 19 18.566   +27 24 41.76  1.0761 2.0310 156.6 21.2  .86 128
2018 10 13 05  00 19 16.184   +27 23 59.73  1.0761 2.0309 156.6 21.2  .91 127
2018 10 13 06  00 19 13.804   +27 23 17.67  1.0761 2.0309 156.6 21.2  .96 127
2018 10 13 07  00 19 11.426   +27 22 35.58  1.0760 2.0308 156.6 21.2  1.0 127
2018 10 13 08  00 19 09.050   +27 21 53.45  1.0760 2.0308 156.6 21.2  1.1 127
2018 10 13 09  00 19 06.676   +27 21 11.29  1.0760 2.0307 156.6 21.2  1.1 126
2018 10 13 10  00 19 04.304   +27 20 29.10  1.0759 2.0307 156.6 21.2  1.2 126
2018 10 13 11  00 19 01.933   +27 19 46.87  1.0759 2.0306 156.6 21.2  1.2 126
2018 10 13 12  00 18 59.565   +27 19 04.61  1.0759 2.0306 156.6 21.2  1.3 126
2018 10 13 13  00 18 57.198   +27 18 22.31  1.0758 2.0305 156.6 21.2  1.3 125
2018 10 13 14  00 18 54.833   +27 17 39.99  1.0758 2.0305 156.6 21.2  1.4 125
2018 10 13 15  00 18 52.470   +27 16 57.63  1.0758 2.0304 156.6 21.2  1.5 125
2018 10 13 16  00 18 50.110   +27 16 15.23  1.0757 2.0304 156.6 21.2  1.5 125
2018 10 13 17  00 18 47.751   +27 15 32.81  1.0757 2.0303 156.6 21.2  1.6 125
2018 10 13 18  00 18 45.394   +27 14 50.35  1.0757 2.0303 156.6 21.2  1.6 125
2018 10 13 19  00 18 43.039   +27 14 07.86  1.0756 2.0302 156.6 21.2  1.7 124
2018 10 13 20  00 18 40.686   +27 13 25.34  1.0756 2.0301 156.6 21.2  1.8 124
2018 10 13 21  00 18 38.335   +27 12 42.78  1.0756 2.0301 156.6 21.2  1.8 124
2018 10 13 22  00 18 35.985   +27 12 00.19  1.0756 2.0300 156.6 21.2  1.9 124
2018 10 13 23  00 18 33.638   +27 11 17.57  1.0755 2.0300 156.6 21.2  2.0 124
2018 10 14 00  00 18 31.293   +27 10 34.92  1.0755 2.0299 156.6 21.2  2.0 124
2018 10 14 01  00 18 28.950   +27 09 52.24  1.0755 2.0299 156.6 21.2  2.1 124
2018 10 14 02  00 18 26.609   +27 09 09.52  1.0755 2.0298 156.5 21.2  2.2 123
2018 10 14 03  00 18 24.270   +27 08 26.77  1.0754 2.0298 156.5 21.2  2.3 123
2018 10 14 04  00 18 21.933   +27 07 43.99  1.0754 2.0297 156.5 21.2  2.3 123
2018 10 14 05  00 18 19.598   +27 07 01.18  1.0754 2.0297 156.5 21.2  2.4 123
2018 10 14 06  00 18 17.264   +27 06 18.34  1.0753 2.0296 156.5 21.2  2.5 123
2018 10 14 07  00 18 14.933   +27 05 35.46  1.0753 2.0296 156.5 21.2  2.6 123
2018 10 14 08  00 18 12.604   +27 04 52.56  1.0753 2.0295 156.5 21.2  2.6 123
2018 10 14 09  00 18 10.278   +27 04 09.62  1.0753 2.0295 156.5 21.2  2.7 123
2018 10 14 10  00 18 07.953   +27 03 26.65  1.0753 2.0294 156.5 21.2  2.8 122
2018 10 14 11  00 18 05.630   +27 02 43.65  1.0752 2.0294 156.5 21.2  2.9 122
2018 10 14 12  00 18 03.309   +27 02 00.62  1.0752 2.0293 156.5 21.2  3.0 122
2018 10 14 13  00 18 00.991   +27 01 17.56  1.0752 2.0293 156.5 21.2  3.1 122
2018 10 14 14  00 17 58.674   +27 00 34.46  1.0752 2.0292 156.5 21.2  3.1 122
2018 10 14 15  00 17 56.359   +26 59 51.34  1.0751 2.0291 156.5 21.2  3.2 122
2018 10 14 16  00 17 54.047   +26 59 08.18  1.0751 2.0291 156.5 21.2  3.3 122
2018 10 14 17  00 17 51.737   +26 58 25.00  1.0751 2.0290 156.5 21.2  3.4 122
2018 10 14 18  00 17 49.429   +26 57 41.78  1.0751 2.0290 156.5 21.2  3.5 122
2018 10 14 19  00 17 47.123   +26 56 58.53  1.0751 2.0289 156.5 21.2  3.6 121